星链-4189 (STARLINK-4189 )

导读

STARLINK-4189是美国太空探索技术公司(SpaceX)星链(Starlink)星座的卫星,于2022年6月17日发射升空,作为星链互联网星座的组成部分,它旨在为全球用户提供低延迟、高速率的宽带互联网服务,尤其覆盖偏远地区与网络基础设施薄弱区域,依托低轨布局提升通信服务体验,支撑星链星座全球组网覆盖的建设目标。

基本信息
目录编号:
52853
目录名称:
STARLINK-4189
国际标识:
2022-062Z
轨道中心:
EARTH
卫星名称:
星链-4189
卫星全名:
星链-4189 (STARLINK-4189 )
卫星状态:
已陨落 最后检测时间 2026-08-12
发射日期:
2022-06-17 UTC
国别 :
美国 (US)
星等 :
--
该卫星已列入 空间交会检测服务 Space Conjunction Data Service (SCDS) ,当前飞行风险评估等级: 无高风险
轨道信息
数据来源 国际轨道数据
星历时间: 2026-08-12T03:08:34+0800
轨道信息已过期31天
半长轴: 6531.39km
偏心率: 0.0008594
轨道倾角: 53.194°
近地点辐角 275.982°
升交点赤经 15.152°
平近点角 84.025°
近地点: 147.639km
远地点: 158.867km
周期: 87.552分钟
每日圈数: 16.44729
详细信息
固有亮度:
5
最大亮度:
2.5
卫星平台:
Starlink v1.5
覆盖范围:
全球
运营商:
太空探索技术公司
运营商所在国:
美国
制造商(研发单位):
太空探索技术公司
制造商所在国:
美国
使用方式:
暂无
卫星简介
星链(Starlink)计划是由太空探索技术公司(SpaceX)提出的一个巨型低轨卫星互联网星座项目,计划在2019年至2024年间在太空搭建由约1.2万颗卫星组成的“星链”网络,其中1584颗将部署在地球上空550千米处的近地轨道,并从2020年开始工作。该卫星仍在工作。
与全量物体交会距离演化趋势
与全量物体交会风险概率演化趋势